Flag for Germany Weather past 2 weeks in Werl, North Rhine-Westphalia, Germany

Now
57 °F

Scattered clouds.


Feels Like: 54 °F
Forecast: 50 / 65 °F
Wind: 14 mph from Northwest

Location: Dortmund / Wickede

Current Time: Jul 29, 2015 at 8:06:41 PM

Latest Report: Jul 29, 2015 at 7:20 PM


Visibility: N/A

Pressure: 29.80 "Hg

Humidity: 72%

Dew point: 48 °F

Location of WerlLocation

Historic Weather in Werl — Graph

°F

Werl temperature yesterday

Maximum temperature yesterday: 64 °F (at 3:20 PM)
Minimum temperature yesterday: 55 °F (at 5:20 AM)
Average temperature yesterday: 59 °F

Past Weeks' High & Low Weather Summary

 TemperatureHumidityPressure
High86 °F (Jul 17, 1:50 PM)94% (Jul 15, 5:20 AM)30.12 "Hg (Jul 15, 5:20 AM)
Low50 °F (Jul 26, 5:20 AM)27% (Jul 17, 3:20 PM)29.50 "Hg (Jul 25, 7:50 AM)
Average66 °F66%29.88 "Hg
* Reported Jul 14 6:20 PM — Jul 29 6:50 PM, Werl, Weather by CustomWeather, © 2015

Note: Actual official high and low records may vary slightly from our data, if they occured in-between our weather recording intervals... More about our weather records

Advertising

Werl weather history for previous 24 hours

 ConditionsComfort  
Time TempWeatherWind HumidityBarometerVisibility
6:50 PM
Wed, Jul 29
57 °FSprinkles. Scattered clouds.12 mph72%29.80 "HgN/A
6:20 PM57 °FScattered showers. Scattered clouds.10 mph72%29.80 "HgN/A
5:52 PM57 °FThunderstorms. Partly sunny.15 mph63%29.80 "Hg5 mi
5:20 PM61 °FPassing clouds.16 mph52%29.77 "HgN/A
4:50 PM61 °FPassing clouds.17 mph55%29.77 "HgN/A
4:20 PM59 °FSprinkles. Scattered clouds.20 mph55%29.77 "HgN/A
3:50 PM59 °FScattered clouds.23 mph55%29.77 "HgN/A
3:20 PM61 °FPassing clouds.17 mph63%29.77 "HgN/A
2:50 PM59 °FPassing clouds.15 mph72%29.77 "HgN/A
2:20 PM55 °FPassing clouds.10 mph77%29.77 "HgN/A
1:50 PM50 °FThundershowers. Broken clouds.10 mph88%29.77 "HgN/A
1:20 PM54 °FThundershowers. Partly sunny.10 mph82%29.77 "HgN/A
12:50 PM52 °FLight rain. Partly sunny.17 mph77%29.74 "HgN/A
12:20 PM57 °FSprinkles. Partly sunny.9 mph77%29.71 "HgN/A
11:50 AM55 °FSprinkles. Partly sunny.9 mph82%29.71 "HgN/A
11:20 AM52 °FSleet. Partly sunny.16 mph82%29.74 "Hg4 mi
10:56 AM59 °FThundershowers. Partly sunny.14 mph59%29.74 "HgN/A
10:20 AM57 °FPartly sunny.16 mph67%29.74 "HgN/A
9:20 AM57 °FPartly sunny.15 mph67%29.74 "HgN/A
8:50 AM55 °FScattered clouds.17 mph72%29.74 "HgN/A
8:20 AM55 °FPartly sunny.14 mph72%29.74 "HgN/A
7:50 AM55 °FPartly sunny.13 mph72%29.74 "HgN/A
7:20 AM54 °FPartly sunny.12 mph77%29.74 "HgN/A
6:50 AM54 °FPartly sunny.13 mph77%29.74 "HgN/A
6:20 AM54 °FPassing clouds.12 mph77%29.74 "HgN/A
5:50 AM54 °FPassing clouds.14 mph77%29.74 "HgN/A
5:20 AM54 °FPassing clouds.15 mph77%29.74 "HgN/A
10:50 PM
Tue, Jul 28
57 °FClear.12 mph55%29.74 "Hg10 mi
10:20 PM57 °FSunny.13 mph59%29.74 "Hg10 mi
9:50 PM55 °FCool.9 mph67%29.74 "HgN/A
9:20 PM59 °FSunny.13 mph59%29.74 "Hg10 mi
8:50 PM59 °FSunny.12 mph63%29.74 "Hg10 mi
8:20 PM61 °FPassing clouds.14 mph55%29.71 "HgN/A
Weather by CustomWeather, © 2015

See weather overviewHow to use our weather pages